GFSFLT2_sfc_wetblb_240.txt.gz
Wetbulb
45.17 43.62 43.89 42.59 42.51 42.60 41.56 42.10 42.59 43.47 43.54 42.98 42.64 41.89 41.73 41.92 42.23 42.39 42.55 42.52 42.62 42.43 42.86 43.28 43.96 44.19 44.36
40.06 40.04 41.73 42.61 42.69 40.21 39.60 40.25 41.45 42.41 42.50 42.22 42.29 41.50 41.47 41.56 41.50 40.94 40.60 40.30 39.67 40.26 41.22 41.76 42.33 42.76 43.09
38.21 40.39 40.36 41.60 40.83 39.89 39.45 38.87 39.54 40.80 41.59 41.53 41.28 41.01 40.74 40.31 39.57 38.49 37.68 37.84 38.39 39.17 39.96 40.48 40.98 41.74 42.02
39.71 39.13 39.02 39.86 39.20 36.66 35.68 38.13 37.23 37.91 39.69 39.92 40.20 39.36 38.68 38.52 37.48 36.01 35.95 36.92 38.00 38.97 39.25 39.05 38.62 39.11 39.74
38.54 37.83 36.49 35.23 35.24 37.03 36.70 36.44 38.26 38.60 38.13 38.31 38.61 37.71 37.51 36.67 35.40 34.84 35.84 36.81 37.60 37.37 37.75 37.96 37.73 37.89 38.31
39.35 37.70 36.17 36.12 37.31 37.23 37.74 35.50 33.28 38.29 36.44 35.23 36.70 36.48 37.18 36.98 34.63 34.63 35.45 36.60 36.21 36.07 36.56 36.63 36.74 36.74 37.01
39.49 38.99 36.96 37.76 38.17 36.37 36.46 35.62 34.47 34.26 35.32 33.85 36.43 34.72 36.64 35.01 33.26 34.12 35.54 36.51 35.80 35.02 35.30 35.46 35.57 35.79 35.98
42.07 40.98 40.18 39.70 38.15 36.94 36.21 36.01 35.11 34.34 36.14 31.78 33.82 32.75 35.25 35.15 32.57 34.50 34.16 33.05 33.40 33.81 34.39 34.46 34.42 34.47 34.77
40.43 40.21 40.32 40.34 38.39 37.36 34.58 32.93 31.60 32.04 33.20 31.81 31.26 31.23 32.47 32.68 33.90 34.64 32.37 32.34 32.34 33.20 33.47 33.46 33.30 33.46 33.35
37.67 38.21 38.43 38.20 38.39 38.55 35.86 33.41 31.36 29.30 32.08 30.76 29.79 29.21 28.50 31.22 31.79 32.62 33.04 32.45 32.28 32.36 32.59 32.50 32.55 31.46 31.17
35.66 35.66 36.04 35.23 34.76 35.52 36.01 35.16 32.87 30.68 32.14 31.94 29.45 28.75 28.00 28.18 30.03 31.59 31.59 31.14 30.77 30.78 31.16 31.39 31.89 32.06 29.87
33.26 33.34 33.56 32.95 32.84 33.02 32.95 32.72 33.37 33.05 32.48 31.45 29.53 28.92 27.76 26.62 25.97 29.60 30.33 30.37 30.15 29.06 29.28 30.78 31.39 31.79 32.08
32.67 32.19 32.42 32.59 31.57 30.89 30.88 30.77 31.01 30.87 30.83 31.71 30.40 29.32 28.36 26.01 25.46 26.51 26.12 28.10 29.41 28.17 28.83 29.04 28.79 29.42 28.24
32.24 31.58 31.11 30.33 29.75 30.35 28.98 28.99 28.26 27.66 29.43 30.76 30.24 28.67 26.47 26.55 26.00 24.98 26.51 24.76 27.93 28.13 28.04 28.37 29.18 29.63 29.73
31.52 30.43 29.67 29.81 28.98 29.72 29.05 27.68 26.93 26.49 26.29 27.57 27.97 27.76 27.29 25.81 23.49 25.02 24.99 25.83 27.61 27.93 27.11 26.18 28.18 29.41 29.80
32.22 30.97 29.87 29.34 28.31 28.25 27.95 27.11 26.36 25.50 25.35 26.23 25.76 24.56 24.42 25.45 27.06 24.06 25.15 25.42 27.32 27.76 27.22 25.46 25.98 29.06 30.24
31.66 31.04 30.32 29.76 28.64 27.15 26.60 26.56 25.64 25.55 25.27 25.36 23.62 21.91 20.11 19.45 25.47 27.89 24.49 25.56 25.65 25.23 26.27 26.54 25.55 27.16 29.18

GFSFLT2_sfc_wetblb_243.txt.gz
Wetbulb
46.88 45.58 44.99 42.55 43.00 42.97 42.87 42.09 42.93 45.89 45.48 45.01 44.44 43.86 43.42 43.19 43.19 43.28 43.33 43.42 43.22 43.09 42.75 43.16 43.87 44.14 44.40
43.25 41.60 43.16 42.79 41.86 41.17 39.87 41.13 41.23 44.70 44.87 44.50 43.92 43.38 42.71 42.65 42.87 42.56 42.07 41.26 40.38 40.35 41.12 41.52 42.20 42.88 43.46
38.37 40.95 42.57 42.13 40.71 40.34 38.57 38.89 40.44 43.67 44.21 43.63 43.51 43.14 42.36 42.43 42.27 41.21 39.54 38.48 38.47 39.18 39.86 40.58 40.97 41.50 41.91
39.02 38.88 39.40 40.65 40.33 37.23 36.05 36.99 36.39 38.68 41.67 41.83 41.92 42.05 42.02 41.60 40.62 38.95 37.49 37.04 37.93 38.96 39.72 39.34 38.84 39.20 39.90
37.52 37.77 37.25 37.67 36.73 37.33 35.43 35.51 36.38 35.98 36.03 36.57 36.94 36.92 36.93 39.10 38.09 37.39 36.56 37.09 37.74 38.68 38.37 38.54 38.40 38.21 38.59
38.22 36.64 36.45 37.16 37.81 36.09 35.16 33.24 31.73 37.69 34.82 34.64 36.59 35.32 35.66 35.59 38.07 36.75 36.67 36.81 37.35 37.95 37.34 37.27 37.06 37.21 37.39
39.66 38.56 36.95 37.27 37.45 35.42 35.52 34.73 33.89 35.20 34.74 32.38 34.23 33.00 35.52 36.19 36.92 35.80 35.79 36.48 37.54 37.35 36.48 35.86 36.05 36.30 36.34
43.70 41.97 40.91 39.72 38.80 38.01 37.20 35.14 33.52 33.68 34.69 30.83 33.21 32.18 34.02 33.33 36.31 35.01 35.63 36.47 35.55 34.96 34.76 35.09 35.23 35.19 35.32
43.36 42.64 42.43 42.04 40.76 37.34 33.64 31.99 30.41 30.87 32.83 31.57 30.60 29.72 30.98 31.40 32.77 34.93 36.15 34.35 33.62 33.95 34.30 34.51 34.51 34.29 32.30
38.61 40.21 40.90 40.70 40.95 37.22 34.54 32.27 30.82 29.16 31.98 30.71 28.96 28.96 28.13 29.76 30.20 30.92 31.35 34.84 34.48 33.90 33.98 33.90 33.64 29.23 28.42
35.79 35.70 35.84 35.07 34.76 35.30 35.52 34.46 31.93 30.67 32.42 32.36 30.46 28.82 27.52 28.22 29.51 29.20 29.25 28.83 28.35 29.32 32.34 32.71 32.62 31.81 27.20
33.55 32.64 31.97 31.91 32.17 32.82 32.67 32.43 32.94 32.20 32.97 32.16 29.08 29.21 27.83 26.93 25.73 27.96 27.59 27.87 27.55 27.09 27.34 30.07 32.06 32.13 32.38
32.15 31.62 31.69 31.40 30.73 30.03 30.13 30.38 30.80 31.58 31.61 31.24 30.41 29.45 28.66 25.89 24.73 25.17 24.06 26.11 26.85 25.71 25.10 25.75 26.14 26.63 25.22
31.87 31.17 30.58 30.16 29.30 29.72 28.32 28.41 27.10 27.06 29.93 30.80 30.31 29.10 25.59 24.93 24.02 23.62 24.65 20.33 25.75 24.79 25.33 26.18 26.88 27.18 26.97
30.59 29.55 29.41 29.51 29.12 30.23 29.03 28.36 26.99 25.76 25.44 27.12 27.91 27.71 26.30 22.54 20.45 23.42 23.37 23.34 25.05 25.35 24.69 24.06 25.74 26.36 26.79
30.90 30.10 29.12 28.71 27.90 28.73 28.44 27.21 26.46 25.61 25.33 25.90 24.39 22.24 22.04 24.65 26.97 21.70 21.99 21.32 23.27 23.86 23.38 21.64 22.36 25.68 27.00
31.21 30.48 30.03 28.83 28.18 26.99 27.02 26.67 25.66 24.91 24.56 24.05 21.46 18.80 15.19 14.61 23.53 29.14 18.37 20.42 20.45 22.53 22.81 22.42 21.95 24.05 25.89

GFSFLT2_sfc_wetblb_249.txt.gz
Wetbulb
45.33 43.52 43.81 41.77 42.73 43.40 43.09 43.56 46.91 51.52 52.04 50.92 50.57 51.41 50.44 48.91 47.16 46.57 46.32 46.21 46.05 45.83 45.20 44.45 43.84 44.22 44.29
41.49 42.00 41.02 42.30 43.10 41.63 41.54 42.80 42.73 48.56 50.57 49.66 49.73 50.03 49.15 47.76 46.66 46.10 45.86 45.53 45.44 44.89 43.87 42.49 42.58 43.13 43.77
41.90 42.66 41.14 42.51 39.90 40.56 39.37 40.35 41.61 45.05 49.34 48.95 49.02 49.02 48.12 46.63 46.10 45.56 45.00 44.72 44.31 43.02 41.64 41.12 41.37 42.20 42.64
40.77 40.91 41.83 40.45 40.58 38.32 35.80 37.11 37.71 40.50 44.88 45.55 47.15 47.46 47.19 46.12 45.73 44.76 44.72 44.02 43.15 41.95 40.50 40.10 40.33 41.20 41.23
43.39 39.61 40.27 37.64 38.29 38.47 37.30 36.76 34.42 36.41 38.10 39.41 41.85 42.11 42.85 45.76 43.52 44.16 43.86 43.21 41.99 40.78 40.02 40.11 40.28 40.34 40.05
44.88 41.16 41.73 41.08 40.27 38.69 37.56 33.55 31.53 35.29 36.45 37.21 38.33 37.55 38.86 38.12 42.75 43.05 42.70 42.07 41.14 39.97 39.54 39.46 40.03 39.25 38.86
47.71 44.79 43.55 42.06 40.81 39.01 37.65 36.17 35.79 34.69 36.86 34.65 33.80 36.46 36.89 38.32 41.95 42.28 41.45 41.08 40.38 39.37 38.89 38.86 39.43 38.68 37.93
50.23 48.89 46.71 44.42 43.29 42.03 39.32 37.15 35.13 34.66 36.28 31.94 32.23 34.14 34.53 35.64 40.76 41.15 40.72 40.37 39.21 38.47 38.26 38.71 38.87 37.46 36.72
49.33 48.77 47.00 45.92 44.25 40.56 35.69 34.04 32.54 32.67 34.58 32.75 31.52 31.58 31.60 31.64 33.63 40.35 40.38 39.60 38.23 37.84 38.32 38.11 36.77 36.27 34.67
43.49 44.53 44.26 43.60 43.47 41.52 37.52 35.33 33.27 30.78 33.65 32.77 29.81 29.49 26.71 28.52 30.88 32.61 34.99 38.07 37.40 37.70 36.80 36.21 36.24 31.96 29.31
42.64 41.37 41.07 41.41 40.53 41.00 38.85 38.90 34.84 32.31 33.96 33.44 30.02 28.62 28.25 27.36 28.53 29.70 31.10 31.29 32.47 33.83 36.69 36.32 35.15 33.40 28.49
36.02 36.30 37.19 38.07 36.02 34.88 35.04 33.78 34.16 33.58 34.20 32.94 29.07 28.43 26.36 26.33 25.80 28.73 29.33 30.03 29.68 28.71 29.19 31.31 33.14 33.12 32.67
34.46 32.79 33.03 32.47 32.16 31.92 31.70 31.53 31.16 31.54 31.81 31.53 30.82 28.76 24.77 24.54 26.37 27.16 27.04 28.26 28.64 28.12 27.12 27.05 27.05 26.41 24.53
32.67 30.84 31.11 31.50 31.09 31.34 29.81 29.69 28.37 27.49 29.72 30.14 29.43 29.58 27.57 28.21 27.26 25.82 26.69 23.08 26.38 25.61 26.11 26.24 26.71 26.78 26.01
30.47 30.24 29.79 29.53 28.72 29.96 29.12 28.18 26.14 25.49 25.47 27.77 28.72 28.64 28.03 27.12 24.64 25.64 24.43 23.96 24.12 23.67 22.59 22.65 24.84 25.22 25.53
30.50 29.95 28.87 28.28 27.63 28.41 29.12 28.05 26.46 25.61 24.85 25.51 24.93 24.00 24.26 25.73 27.91 23.41 21.58 19.66 21.65 21.70 20.99 14.80 20.69 23.84 24.21
30.22 29.64 29.20 28.75 28.49 27.90 27.82 27.39 26.01 25.82 25.52 25.04 23.13 20.54 17.34 17.84 23.24 28.89 18.17 18.66 17.35 18.49 20.27 19.08 17.76 21.26 23.02

GFSFLT2_sfc_wetblb_252.txt.gz
Wetbulb
49.39 47.79 44.89 46.97 46.10 45.31 46.33 45.97 47.37 52.29 53.82 53.95 53.31 52.76 53.80 52.79 51.54 49.96 48.95 48.27 48.17 48.07 47.90 47.61 47.04 45.88 45.34
46.60 43.91 45.12 42.73 44.01 40.76 43.57 44.70 45.17 47.94 51.79 52.64 52.38 51.70 52.63 51.75 50.49 49.52 48.72 47.98 47.53 47.24 47.24 46.63 45.76 44.84 44.60
46.58 41.61 43.54 42.15 39.77 39.79 39.20 39.46 42.67 45.42 50.00 51.37 51.54 50.85 51.54 51.02 49.88 48.77 47.72 47.61 47.26 46.94 46.08 45.22 43.73 43.31 43.67
44.84 41.36 42.00 40.72 40.57 39.91 35.20 36.80 38.78 41.15 44.87 47.61 49.30 49.35 50.24 50.19 48.85 47.00 46.39 46.61 46.03 45.69 45.01 43.45 42.00 41.68 42.28
48.04 41.26 40.44 38.38 39.20 39.76 40.16 38.99 36.45 38.94 38.82 42.44 43.55 44.57 46.09 48.39 46.10 45.73 45.93 45.93 45.67 45.03 44.24 42.84 41.40 41.25 41.62
49.11 44.12 43.60 42.78 39.40 39.76 38.48 35.02 34.34 36.38 36.95 38.26 41.81 41.45 42.25 43.28 45.49 45.43 45.50 45.37 45.26 44.13 43.02 41.77 40.95 40.88 41.26
49.76 49.52 46.12 44.63 41.87 40.62 38.40 38.07 40.19 36.08 37.90 36.55 37.44 39.24 39.81 40.58 44.21 44.97 44.94 44.82 44.34 43.05 41.96 40.92 40.49 40.36 40.66
50.90 51.25 50.36 48.71 44.52 44.34 41.70 40.34 36.18 35.42 37.67 34.52 35.28 36.76 38.55 38.54 42.95 44.75 44.35 43.96 42.91 42.13 41.32 40.27 39.61 39.56 40.15
48.78 49.02 49.15 48.75 46.47 43.35 38.88 36.77 34.89 33.50 35.75 34.46 32.92 33.85 33.86 34.73 36.26 43.00 43.77 42.83 41.95 41.22 40.34 39.45 39.07 39.75 37.91
46.82 47.75 47.73 48.16 46.22 44.95 41.46 38.31 36.21 32.02 34.65 34.08 31.28 31.43 30.84 31.29 33.53 35.42 38.40 41.43 41.26 40.39 39.23 38.96 38.78 34.18 31.40
45.53 43.04 42.39 43.33 44.05 43.79 41.66 41.01 37.23 35.44 35.07 35.40 31.80 30.85 30.83 28.40 29.45 31.13 32.58 33.92 34.46 35.29 38.47 38.15 37.32 36.68 30.08
37.64 36.90 36.70 37.66 38.20 38.54 37.35 35.25 36.04 35.44 35.85 35.00 31.44 31.30 29.22 27.18 26.98 28.90 29.52 30.60 30.69 30.72 30.91 33.83 36.54 36.19 35.53
35.08 33.17 32.88 32.91 32.74 32.44 32.24 31.92 31.55 32.73 34.91 32.43 31.76 30.15 30.08 27.72 26.65 27.25 27.04 28.98 29.83 29.61 29.73 29.14 28.56 28.45 26.49
32.77 31.39 31.76 32.37 31.99 32.08 31.13 30.62 28.53 28.02 30.75 31.71 31.27 30.44 28.16 28.72 28.12 27.01 28.31 26.46 27.50 28.01 27.80 27.61 28.05 28.15 27.09
31.35 30.63 30.88 30.81 30.24 31.17 30.64 29.28 26.86 25.87 25.91 27.51 28.46 28.65 28.65 27.96 25.85 26.89 26.45 26.11 26.67 25.89 25.38 24.23 25.62 26.24 25.79
31.21 30.73 29.71 29.10 28.38 29.08 29.61 28.47 26.58 26.02 25.50 25.61 25.42 24.80 25.32 26.65 28.81 25.14 24.95 23.82 24.14 24.34 23.13 18.17 21.29 24.72 24.60
30.71 30.06 29.46 28.52 28.75 28.56 28.80 28.39 27.29 26.18 25.21 25.01 24.15 23.30 21.30 21.61 24.32 29.53 20.88 20.30 20.00 20.17 20.06 18.77 18.90 22.02 23.40

GFSFLT2_sfc_wetblb_255.txt.gz
Wetbulb
47.30 45.97 44.85 46.49 47.28 46.55 46.91 46.71 47.39 52.54 54.68 54.67 54.56 54.47 54.42 55.29 55.11 54.17 52.97 52.02 51.15 50.54 50.11 49.89 49.60 48.96 48.36
45.90 44.47 44.53 44.62 45.90 45.28 45.25 45.71 45.58 48.88 51.94 53.44 53.80 53.80 53.61 53.88 54.02 53.03 51.70 51.11 50.70 49.72 49.19 49.14 48.87 48.54 47.63
48.30 44.53 43.39 40.80 40.98 40.62 40.15 40.84 42.40 46.21 49.44 51.06 52.67 53.10 52.94 52.73 53.02 51.89 50.53 49.80 49.32 48.84 48.84 48.14 47.95 47.49 46.34
47.95 43.17 41.83 40.45 39.57 38.28 37.27 37.75 41.31 41.67 44.56 46.58 49.44 50.87 52.04 51.97 51.72 49.98 48.88 48.59 48.81 48.53 47.89 47.44 46.94 45.83 44.67
48.22 42.47 41.63 39.12 39.76 41.06 41.22 39.21 35.80 37.63 38.33 40.28 43.28 46.10 48.52 50.18 49.17 48.27 48.13 48.07 47.86 47.91 47.44 46.98 45.80 44.35 43.13
49.18 44.12 44.95 42.59 41.49 42.77 41.87 37.03 38.00 35.95 37.32 38.11 40.44 42.78 44.57 45.77 48.29 48.22 47.71 47.43 47.12 46.81 46.54 46.29 45.34 43.61 42.51
49.45 49.33 48.00 45.54 44.03 42.74 39.33 40.87 42.09 37.48 37.45 36.13 37.46 39.49 43.05 43.63 46.76 47.22 46.87 46.55 46.34 45.96 45.71 45.30 43.95 42.68 41.85
50.62 51.15 50.95 49.59 47.42 46.50 45.09 42.68 38.03 36.21 37.89 35.67 36.44 37.11 40.62 40.71 44.45 46.28 46.00 45.91 45.58 45.39 45.25 44.34 43.16 41.71 41.14
48.46 48.46 48.80 49.12 48.48 46.16 40.73 39.04 37.26 35.27 35.21 35.91 34.52 34.87 35.86 36.97 39.42 44.49 45.49 45.42 45.32 45.01 44.19 43.13 42.04 40.92 38.69
46.85 47.01 47.15 48.29 47.42 47.26 44.83 39.85 38.80 32.14 35.17 35.12 32.31 32.42 31.96 32.85 35.50 38.71 42.03 44.76 44.66 43.76 43.03 42.21 40.96 35.11 32.03
45.66 44.91 44.28 44.42 45.67 46.34 46.19 42.80 40.11 36.67 36.15 35.79 32.35 31.81 32.03 29.60 30.30 33.02 36.59 37.62 40.33 40.43 41.97 40.81 39.69 37.29 31.54
39.73 38.95 38.21 38.65 38.59 38.47 37.68 36.26 36.93 37.40 37.05 35.87 32.60 32.73 31.01 28.27 28.27 29.69 31.12 33.19 34.61 33.89 32.58 35.70 38.82 38.63 38.47
36.76 34.94 33.66 33.72 32.85 32.28 32.37 32.44 32.01 32.80 36.36 33.40 32.95 32.07 31.80 29.40 27.35 27.94 28.63 29.82 30.55 30.25 29.85 29.77 29.37 29.59 28.14
33.73 32.56 31.93 32.33 31.98 32.27 31.56 31.37 29.48 28.49 30.99 32.40 32.25 31.79 29.34 29.56 29.30 27.59 28.48 26.44 27.76 27.54 28.41 28.29 28.65 28.61 27.83
31.86 31.08 31.21 31.52 30.77 31.81 31.15 30.20 28.26 26.61 26.39 27.62 28.97 29.70 29.74 29.37 27.16 27.42 26.10 25.21 25.92 25.81 25.10 24.04 26.10 27.11 27.26
31.80 31.52 30.69 30.36 29.54 29.87 30.40 29.27 27.25 26.48 25.82 26.01 26.56 26.27 26.69 27.44 29.15 25.06 24.76 23.14 23.32 23.62 23.11 19.77 22.32 24.88 25.28
31.62 30.96 30.24 29.30 30.21 28.82 28.89 28.43 26.98 26.94 26.30 25.43 24.37 24.08 22.31 22.87 23.52 28.94 18.22 20.83 20.06 21.13 21.23 19.94 18.18 22.07 23.46

GFSFLT2_sfc_wetblb_258.txt.gz
Wetbulb
49.46 48.22 46.58 46.90 47.20 47.40 47.65 47.55 48.51 52.80 54.93 55.23 55.00 54.96 55.16 55.33 55.89 56.61 56.15 55.59 55.10 54.28 53.62 52.79 51.97 51.33 50.79
47.65 45.31 46.07 44.30 45.29 44.90 46.11 47.09 47.34 49.45 52.13 53.45 54.28 54.36 54.43 54.42 54.14 54.95 54.90 54.23 53.72 53.63 53.17 52.31 51.46 50.87 50.54
47.45 44.80 43.89 42.47 41.52 42.45 42.97 44.02 44.30 47.08 49.93 51.19 52.49 53.37 53.71 53.76 53.41 53.29 53.41 52.95 52.12 51.71 51.63 51.34 50.59 50.16 49.96
48.59 44.14 43.11 41.11 41.44 41.57 41.16 38.91 41.80 42.68 45.01 46.99 48.90 50.24 51.84 53.00 52.48 51.17 51.29 51.54 51.61 51.21 50.22 49.27 49.00 49.33 48.83
47.55 44.59 42.89 40.25 41.13 42.23 41.85 42.78 38.87 40.07 38.46 40.31 42.18 43.63 46.67 50.17 50.05 49.27 50.31 51.03 50.82 50.45 49.96 49.15 48.35 48.22 47.83
48.70 44.53 45.68 43.63 42.70 43.16 41.67 37.95 37.70 38.33 38.25 41.11 39.38 40.12 42.57 45.04 48.50 49.63 49.79 50.25 49.99 49.44 49.02 48.60 47.80 47.34 46.66
50.12 48.34 47.62 46.47 43.69 41.03 40.01 38.84 42.79 39.70 37.13 34.88 36.63 37.96 41.12 42.98 46.98 48.10 48.91 49.20 49.11 48.51 47.91 47.61 47.08 46.84 46.32
50.53 50.71 50.48 49.20 47.56 47.51 46.03 43.52 39.57 37.68 37.70 36.43 34.85 36.47 38.46 39.45 45.11 46.73 47.63 48.22 48.08 47.62 47.20 46.55 45.89 45.82 45.30
48.72 48.85 49.03 49.31 48.73 47.26 42.56 39.65 38.74 37.59 36.81 36.80 36.10 33.95 36.14 38.06 40.10 44.72 46.49 47.24 47.34 47.14 46.58 45.87 45.44 44.86 42.96
47.40 47.08 47.35 48.09 47.57 48.21 45.91 40.48 39.08 33.45 36.60 35.70 33.54 34.26 34.12 33.42 34.72 37.89 42.09 45.62 46.30 46.31 46.03 45.65 45.05 40.19 37.14
46.50 45.89 45.27 45.55 45.53 45.97 46.63 44.25 40.19 37.40 38.22 36.52 32.94 32.37 32.73 32.13 31.22 32.90 35.90 38.79 41.19 43.36 45.31 45.04 43.69 40.75 35.23
41.24 40.58 39.91 40.24 40.35 39.46 38.76 38.51 37.78 38.79 38.19 35.91 32.77 33.31 32.57 29.88 30.47 30.55 31.66 34.00 35.39 34.93 35.80 41.07 42.75 41.39 39.97
37.83 36.54 34.89 35.32 33.92 32.71 32.62 32.80 32.39 32.75 36.49 34.09 33.28 32.70 32.50 32.00 29.79 28.74 29.34 30.60 32.27 32.39 32.90 33.11 33.40 32.92 32.18
35.25 33.40 32.39 32.39 32.29 32.60 32.16 32.03 31.49 29.74 30.88 32.91 32.96 32.74 30.78 30.46 30.02 28.46 29.68 28.58 29.33 29.79 30.19 30.20 30.29 30.37 29.61
32.72 32.04 31.71 31.98 31.44 32.13 31.67 30.83 30.40 27.96 27.36 28.45 29.77 30.39 30.16 30.09 26.41 26.69 26.15 25.82 26.33 26.01 26.59 25.33 26.93 26.93 26.81
32.35 32.18 31.67 31.53 30.58 30.55 30.81 30.30 28.77 27.41 26.34 27.05 27.49 27.31 27.29 27.62 30.18 25.48 24.89 24.25 25.00 25.12 23.09 18.10 21.71 24.70 25.46
32.18 31.88 31.31 30.69 31.91 29.89 29.73 29.13 27.54 27.24 26.57 26.31 25.92 25.51 23.79 22.75 23.97 28.94 22.56 21.24 20.65 20.63 20.74 20.30 20.02 22.25 22.96

GFSFLT2_sfc_wetblb_261.txt.gz
Wetbulb
53.16 53.33 51.35 52.16 51.99 52.86 52.77 53.28 53.98 53.51 55.56 55.71 55.41 55.40 55.64 55.73 55.78 56.50 57.28 57.63 57.60 57.46 56.68 56.06 55.31 54.33 53.40
50.02 48.43 50.51 50.13 50.30 50.37 50.27 51.06 52.91 51.85 52.95 53.84 54.47 54.66 54.79 54.80 54.56 54.61 54.71 55.57 56.04 56.08 56.15 56.18 55.75 54.57 53.75
47.97 46.99 46.29 45.35 46.64 48.00 49.07 50.37 49.77 48.81 50.99 51.91 52.83 53.45 54.02 54.16 53.86 53.55 53.19 53.40 54.08 53.98 54.04 54.21 54.56 54.67 53.55
50.04 46.69 46.35 43.86 45.16 47.32 45.86 46.01 47.45 46.48 47.50 48.91 50.43 51.01 52.09 52.92 52.69 51.52 51.19 51.86 52.91 53.58 52.83 52.00 51.94 52.56 52.83
49.50 47.44 46.60 44.40 45.81 47.00 47.01 48.57 46.55 46.45 46.33 46.31 47.71 48.38 49.53 50.01 49.50 49.15 50.37 51.31 51.65 52.36 52.72 52.02 50.94 50.72 50.99
49.44 48.68 47.75 47.76 47.52 47.79 46.88 45.65 46.51 45.06 44.91 47.43 46.54 46.38 46.92 48.00 48.23 48.60 49.31 50.40 50.91 51.12 51.49 51.43 50.56 49.53 49.41
50.64 49.75 49.88 50.91 50.04 45.59 45.74 46.07 47.55 45.94 43.98 44.38 43.24 44.01 46.47 45.41 46.12 46.93 47.95 49.11 49.56 50.05 50.16 50.04 49.67 48.92 48.32
52.95 51.99 52.98 51.96 49.61 49.15 48.40 47.84 45.53 43.69 43.81 42.07 43.00 42.47 45.44 45.22 44.99 45.84 46.77 47.62 48.46 49.04 49.37 49.10 48.38 47.91 47.52
49.70 49.14 48.98 48.72 49.19 47.67 44.93 42.20 40.57 40.88 41.03 40.58 40.11 42.39 41.43 42.72 43.80 43.93 45.75 46.42 47.22 48.20 48.74 48.45 47.58 47.17 46.41
47.93 47.77 48.20 49.13 47.43 50.37 48.46 42.26 38.13 35.55 39.40 37.94 38.05 37.60 37.13 37.59 38.23 39.16 40.46 43.23 45.38 46.58 47.38 47.79 47.03 44.58 43.13
47.97 48.24 47.66 48.13 48.02 48.17 47.82 45.80 38.06 38.10 40.63 38.03 34.52 34.73 34.52 35.32 33.26 33.70 35.60 37.85 40.05 42.32 45.38 46.58 46.30 44.57 39.27
43.19 42.81 42.79 43.13 43.30 42.85 41.55 41.02 40.02 40.58 40.70 37.51 33.32 34.52 33.25 32.35 33.14 32.44 32.86 34.47 35.73 36.32 37.46 42.67 44.98 45.14 41.38
39.35 38.33 36.99 38.39 35.92 33.98 33.69 33.83 33.27 33.54 36.96 35.03 34.08 33.12 33.05 32.89 32.43 30.98 32.27 32.50 33.47 33.78 34.00 34.62 34.81 35.38 35.90
36.43 35.65 33.96 33.54 33.39 33.47 32.85 32.94 32.96 31.92 31.98 33.16 33.14 33.18 32.29 32.44 31.99 30.77 31.32 31.96 32.35 32.03 31.95 32.00 32.64 33.39 34.17
34.48 33.61 32.92 32.85 32.44 32.78 32.51 32.18 32.36 30.78 29.73 29.99 30.89 31.56 31.61 31.93 30.39 31.02 30.09 30.88 30.75 31.14 31.09 31.16 31.53 32.45 32.35
33.56 33.27 32.80 32.69 32.08 31.78 31.95 32.13 31.68 29.49 28.56 28.65 29.12 29.32 29.48 29.80 31.37 29.95 29.85 29.96 29.65 28.70 27.91 28.25 28.31 29.73 29.35
32.85 32.58 32.45 32.22 32.81 31.26 31.15 30.88 29.83 29.04 28.19 28.43 28.77 29.29 28.54 28.20 26.80 28.73 28.71 27.05 26.82 26.23 25.49 25.59 25.07 26.43 27.42

GFSFLT2_sfc_wetblb_264.txt.gz
Wetbulb
55.76 53.43 54.52 55.54 55.16 54.61 54.81 55.66 56.20 54.11 56.11 56.51 56.01 55.87 56.05 56.16 56.32 56.81 57.47 58.21 58.66 59.04 59.20 58.73 57.95 57.25 56.20
52.56 52.12 52.93 54.35 55.64 54.05 54.13 55.25 56.54 54.26 53.77 54.84 55.29 55.23 55.32 55.24 54.95 54.98 54.87 55.31 56.20 57.18 57.86 58.04 57.97 57.84 57.32
50.32 49.55 48.82 48.02 49.72 51.60 52.77 53.10 53.94 51.49 53.03 53.02 53.73 54.05 54.29 54.37 54.14 53.82 53.41 53.60 53.66 53.98 54.97 55.88 56.45 56.89 57.34
52.84 47.83 50.23 46.06 47.41 47.81 46.18 49.91 51.95 51.37 50.46 50.74 51.72 51.68 52.35 53.07 52.76 51.66 51.22 52.00 52.88 53.26 53.15 53.18 53.49 54.53 55.62
50.43 48.38 45.73 44.24 46.01 47.13 48.27 50.05 50.98 52.04 50.40 50.97 50.35 51.82 51.86 50.69 50.08 49.35 50.33 51.40 51.73 52.14 52.58 52.84 52.58 52.69 53.53
50.89 49.60 49.64 51.03 49.54 49.58 49.15 50.24 48.43 50.26 49.22 50.77 49.80 49.68 50.79 51.36 50.45 49.46 49.54 49.69 50.11 50.67 51.15 51.52 51.64 51.78 51.78
52.28 51.86 52.37 53.14 52.35 52.58 51.92 51.59 52.06 48.83 49.87 49.40 48.93 48.98 51.37 49.72 48.06 47.86 47.95 48.10 48.49 49.01 49.58 50.06 50.38 50.80 50.84
54.20 54.51 54.61 54.60 55.19 54.33 53.51 52.81 51.61 48.17 49.01 47.35 51.58 48.38 51.17 50.78 47.78 46.67 46.57 46.85 47.22 47.74 48.42 48.92 48.98 49.33 49.75
50.84 50.65 49.86 50.14 52.73 52.76 50.08 47.59 46.36 47.12 47.48 46.36 46.69 47.67 49.24 49.16 49.70 45.76 44.82 45.73 46.41 46.91 47.37 47.67 47.98 48.40 48.63
50.35 48.70 49.37 50.46 47.73 53.33 52.47 46.10 38.75 37.12 44.05 42.45 41.51 41.35 40.08 44.21 43.71 43.25 43.62 42.93 43.11 44.57 45.55 46.40 46.97 47.09 46.32
49.35 49.85 50.26 50.79 50.07 49.81 50.32 48.84 39.33 39.84 43.01 40.74 36.28 36.52 36.10 36.20 35.95 38.50 38.20 39.09 39.75 41.08 42.31 43.38 45.24 46.02 42.60
47.67 46.66 47.09 47.05 46.55 46.78 45.68 45.03 44.41 43.38 42.85 40.03 33.98 36.41 34.20 33.93 35.07 35.17 36.60 35.73 35.48 36.18 38.14 39.60 42.45 44.26 44.70
43.22 42.27 42.12 43.92 38.15 35.37 34.82 35.20 34.13 34.51 37.61 36.44 35.20 33.60 33.60 33.84 34.38 33.77 34.89 34.40 34.05 34.87 36.01 36.20 35.25 36.92 37.22
39.88 37.92 34.93 34.84 35.11 34.80 33.57 33.60 33.47 32.73 32.41 33.44 33.42 33.47 33.17 34.04 33.51 32.96 32.57 32.66 34.69 34.79 33.85 33.36 33.68 33.70 34.10
36.30 35.05 34.09 33.96 33.20 33.86 33.18 32.71 33.02 32.62 31.86 31.69 31.92 32.45 32.48 32.59 31.93 32.33 32.99 33.13 33.03 32.62 32.52 32.48 33.68 33.87 33.93
35.54 35.11 34.25 33.89 33.06 32.53 32.50 32.68 32.84 32.35 31.74 30.80 30.60 30.40 30.37 29.98 31.73 32.52 32.00 31.85 31.22 30.99 30.98 30.95 32.15 33.67 32.96
33.66 33.53 33.38 33.13 33.37 32.41 32.31 32.28 31.90 31.21 30.72 30.20 29.98 30.89 28.85 29.00 27.93 29.21 31.15 30.27 30.07 29.68 28.65 28.66 28.31 29.14 29.46